Regional Weather Roundup
Issued by NWS

Home | Current Version | Previous Version | Text Only | Print | Product List | Glossary On
Versions: 1 2 3 4 5 6 7 8 9 10 11 12 13 14 15 16 17 18 19 20 21 22 23 24 25 26 27 28 29 30 31 32 33 34 35 36 37 38 39 40 41 42 43 44 45 46 47 48 49 50
000
ASUS46 KSEW 212110
RWRWA

WASHINGTON REGIONAL WEATHER ROUNDUP
NATIONAL WEATHER SERVICE SEATTLE WA
200 PM PDT TUE OCT 21 2014

NOTE:"FAIR" INDICATES FEW OR NO CLOUDS BELOW 12,000 FEET WITH NO
SIGNIFICANT WEATHER AND/OR OBSTRUCTIONS TO VISIBILITY.

WAZ505-507>509-212200-
SEATTLE, TACOMA, EVERETT, AND VICINITY

CITY           SKY/WX    TMP DP  RH WIND       PRES   REMARKS
EVERETT        MOSUNNY   57  49  74 S22G32    29.90F
BOEING FIELD   CLOUDY    61  51  70 S12       29.92F
RENTON         LGT RAIN  60  51  72 S9        29.92S
SEATAC AIRPORT CLOUDY    57  51  80 S8        29.93F
JBLM-MCCHORD   PTSUNNY   61  51  68 S13G18    29.92F
PUYALLUP       NOT AVBL
JBLM-FT LEWIS  PTSUNNY   60  49  67 S21       29.91F
TACOMA NARROWS CLOUDY    59  49  69 S13G23    29.91F
$$

WAZ001-503-506-510-514-515-212200-
NORTH INTERIOR

CITY           SKY/WX    TMP DP  RH WIND       PRES   REMARKS
BELLINGHAM     PTSUNNY   61  49  64 S20G32    29.83F
FRIDAY HARBOR  MOSUNNY   59  51  75 SE15G22   29.83F
EASTSOUND      MOSUNNY   59  52  77 S14G21    29.81F
PORT ANGELES   MOSUNNY   59  51  75 NE6       29.82F
NAS WHIDBEY    PTSUNNY   62  51  67 SE29G39   29.84F
BURLINGTON     PTSUNNY  N/A N/A N/A S16G25    29.87S
$$

WAZ020-022-039-040-504-511-512-212200-
SOUTHWEST INTERIOR

CITY           SKY/WX    TMP DP  RH WIND       PRES   REMARKS
SHELTON        CLOUDY    58  54  86 SE8       29.88F
OLYMPIA        CLOUDY    58  51  78 S12       29.92F
CHEHALIS       CLOUDY    61  54  77 S14G22    29.93F
KELSO          CLOUDY    61  52  72 SE12G18   29.99F
VANCOUVER      CLOUDY    61  49  64 S7        29.98F
SCAPPOOSE, OR  CLOUDY    59  52  77 S6        29.97F
PORTLAND, OR   CLOUDY    60  51  72 S14       29.98F
$$

WAZ021-516-517-212200-
WASHINGTON COAST

CITY           SKY/WX    TMP DP  RH WIND       PRES   REMARKS
FORKS          LGT RAIN  57  56  96 S14G30    29.79F FOG
HOQUIAM        LGT RAIN  60  55  83 S16G29    29.88F
ASTORIA, OR    CLOUDY    62  53  72 S14G28    29.89F
$$

WAZ019-023-024-040-518-519-212200-
CASCADE MOUNTAINS AND COLUMBIA GORGE

CITY           SKY/WX    TMP DP  RH WIND       PRES   REMARKS
STAMPEDE PASS  NOT AVBL
TROUTDALE, OR  LGT RAIN  61  49  64 SW16      29.98F
THE DALLES, OR PTSUNNY   63  48  58 NW10      29.97F HAZE
$$

WAZ026-027-041>044-520-521-212200-
EAST SLOPES

CITY           SKY/WX    TMP DP  RH WIND       PRES   REMARKS
OMAK           MOSUNNY   61  44  53 S14       29.87S
WENATCHEE      SUNNY     64  39  39 SW6       29.88F HAZE
ELLENSBURG     MOSUNNY   62  41  46 NW3       29.91F HAZE
YAKIMA         MOSUNNY   64  45  49 VRB7      29.92F
$$

WAZ028-034-035-212200-
COLUMBIA BASIN

CITY           SKY/WX    TMP DP  RH WIND       PRES   REMARKS
EPHRATA        SUNNY     64  44  48 W8        29.88F
MOSES LAKE     SUNNY     65  42  43 SW17      29.90F
PASCO          SUNNY     66  48  52 SW20      29.95F
HERMISTON, OR  MOSUNNY   65  44  46 W16       29.97F
$$

WAZ036>038-212200-
NORTHEAST WASHINGTON

CITY           SKY/WX    TMP DP  RH WIND       PRES   REMARKS
SPOKANE GEIGER PTSUNNY   57  42  57 SW16G24   29.92S
SPOKANE FELTS  PTSUNNY   59  42  53 S10       29.93S
FAIRCHILD AFB  PTSUNNY   57  41  55 SW17      29.92S
COEURDALENE,ID CLOUDY    55  41  58 W12G18    29.93S
DEER PARK      PTSUNNY   53  44  71 S5        29.93S
$$

WAZ029>033-212200-
SOUTHEAST WASHINGTON

CITY           SKY/WX    TMP DP  RH WIND       PRES   REMARKS
PULLMAN        CLOUDY    55  39  54 SW18G26   29.98R
LEWISTON, ID   CLOUDY    62  42  47 VRB3      29.95S
WALLA WALLA    CLOUDY    62  44  51 SW14      29.98S
PENDLETON, OR  MOSUNNY   62  43  49 W15       29.98F
$$



USA.gov is the U.S. government's official web portal to all federal, state and local government web resources and services.